Regional Weather Roundup
Issued by NWS Upton, NY

Current Version | Previous Version | Graphics & Text | Print | Product List | Glossary On
Versions: 1 2 3 4 5 6 7 8 9 10 11 12 13 14 15 16 17 18 19 20 21 22 23 24 25 26 27 28 29 30 31 32 33 34 35 36 37 38 39 40 41 42 43 44 45 46 47 48
000
ASUS41 KOKX 290505
RWROKX

REGIONAL WEATHER ROUNDUP
NATIONAL WEATHER SERVICE NEW YORK NY
1200 AM EST SAT NOV 29 2014

NOTE: "FAIR" INDICATES FEW OR NO CLOUDS BELOW 12,000 FEET WITH NO
SIGNIFICANT WEATHER AND/OR OBSTRUCTIONS TO VISIBILITY.

NYZ071-072-176-178-NJZ106-104-290600-
NEW YORK CITY METRO AREA


CITY           SKY/WX    TMP DP  RH WIND       PRES   REMARKS
CENTRAL PARK   CLEAR     29  11  47 VRB3      30.28F
LAGUARDIA APRT MOCLDY    29  13  51 NW9       30.27F WCI  20
KENNEDY INTL   PTCLDY    28  10  46 N6        30.29S WCI  22
NEWARK/LIBERTY MOCLDY    27  14  58 W5        30.28S WCI  22
BRNX BOT. GARD   N/A    N/A N/A N/A N3        30.26F
TETERBORO      CLEAR     27  15  61 CALM      30.27S
$$

NYZ177-179-078>081-290600-
LONG ISLAND NEW YORK

CITY           SKY/WX    TMP DP  RH WIND       PRES   REMARKS
FARMINGDALE    CLEAR     28  13  53 NW5       30.27S WCI  23
ISLIP          PTCLDY    27  13  55 N3        30.25S
SHIRLEY        CLEAR     25  15  66 W3        30.27S
WESTHAMPTON    MOCLDY    26  16  65 NW3       30.27S
MONTAUK POINT    N/A     30  16  56 NW12G21   30.25S WCI  20
$$

NYZ052-065-067-290600-
HUDSON VALLEY

CITY           SKY/WX    TMP DP  RH WIND       PRES   REMARKS
WHITE PLAINS   CLEAR     23  14  68 CALM      30.24R
NEWBURGH       NOT AVBL
MONTGOMERY     CLEAR     13   9  84 CALM      30.24S
POUGHKEEPSIE   CLEAR     16  11  80 CALM      30.26S
ALBANY         PTCLDY    19  11  70 SW3       30.24F
$$

NJZ001-105-106-008-010-013-015-019>022-104-290600-
NEW JERSEY

CITY           SKY/WX    TMP DP  RH WIND       PRES   REMARKS
NEWARK/LIBERTY MOCLDY    27  14  58 W5        30.28S WCI  22
TETERBORO      CLEAR     27  15  61 CALM      30.27S
CALDWELL       PTCLDY    21  14  74 CALM      30.28R
MORRISTOWN       N/A     23  19  86 CALM      30.28R
SOMERVILLE     PTCLDY    20  15  81 CALM      30.27R
SUSSEX         CLOUDY    14  11  87 CALM      30.25R
ANDOVER          N/A     16  13  88 CALM      30.26R
TRENTON        MOCLDY    24  17  74 NW3       30.27S
MILLVILLE      CLEAR     22  18  85 W3        30.29S
ATLANTIC CITY  CLEAR     22  17  81 NW3       30.29F
WRIGHTSTOWN    PTCLDY    25  18  74 E3        30.26R
TOMS RIVER     PTCLDY    18  12  79 CALM      30.29S
BELMAR         PTCLDY    25  10  54 W3        30.26F
$$

PAZ047>061-062-071-290600-
EASTERN PENNSYLVANIA

CITY           SKY/WX    TMP DP  RH WIND       PRES   REMARKS
PHILADELPHIA   MOCLDY    30  16  56 W3        30.30R
ALLENTOWN      MOCLDY    22  15  75 N3        30.27R
SCRANTON       PTCLDY    16   9  74 S7        30.22R WCI   6
$$

CTZ002-004>006-009-010-012-RIZ004-006-007-MAZ004-011-015-290600-
SOUTHERN NEW ENGLAND
 IN CT

CITY           SKY/WX    TMP DP  RH WIND       PRES   REMARKS
BRADLEY INTL   CLEAR     24  13  62 W5        30.24S WCI  18
HARTFORD       CLEAR     25  13  60 W7        30.26S WCI  17
DANBURY        CLEAR     18  11  74 CALM      30.25S
WTRBRY/OXFORD  CLEAR     18   9  68 CALM      30.23S
BRIDGEPORT     CLEAR     25  14  63 NW6       30.27S WCI  18
MERIDEN        CLEAR     22  15  75 CALM      30.26S
NEW HAVEN      CLEAR     29  15  56 NW6       30.26F WCI  23
CHESTER        FAIR      27  14  59 NW5       30.24S WCI  21
GROTON         FAIR      25  14  63 NW7       30.26R WCI  17
WILLIMANTIC    CLEAR     23  14  68 CALM      30.25R

 IN RI

CITY           SKY/WX    TMP DP  RH WIND       PRES   REMARKS
PROVIDENCE     CLEAR     25  15  66 W3        30.24R
BLOCK ISLAND   CLEAR     28  14  54 NW8G16    30.23R WCI  20
WESTERLY       CLEAR     26  14  60 VRB3      30.25R

 IN MA

CITY           SKY/WX    TMP DP  RH WIND       PRES   REMARKS
BOSTON         PTCLDY    27  16  63 NW10G17   30.22R WCI  17
WORCESTER      CLEAR     18  13  80 W8        30.16S WCI   8
WESTFIELD      CLEAR     18  13  80 S5        30.24S WCI  11
PROVINCETOWN   MOCLDY    30  12  47 NW14G22   30.20R WCI  20
NANTUCKET      CLEAR     31  17  56 NW9       30.19S WCI  23
$$

ANZ330-335-338-340-345-350-353-355-290600-
COASTAL MARINE OBSERVATIONS


STATION/POSITION TIME  SKY/WX   TEMP    WIND        PRES    VSBY  WAVE
                                AIR SEA DIR/SP/G                  HT/PER
                 (UTC)          (F)     (DEG/KT/KT) (MB)    (MI)  (FT/S)
NY HARB ENTRANCE 0500            34 53  340/ 10/ 14 1025.3          2/ 3
4S FIRE IS       0400               51                N/A           2/ 4
20S FIRE ISLAND  0500            34 53  340/ 16/ 19 1024.4          3/ 5
23SW MTP         0500                                 N/A           3/ 4
HUDSON CANYON    0500            37 58  330/ 16/ 23 1023.7          5/ 6
EXECUTION ROCKS  0500            30 47  320/  8/ 12   N/A
WESTERN LI SOUND 0500            30     320/  8/ 12   N/A           0
CENTRAL LI SOUND 0400            31 49  330/ 17/ 23   N/A           2/ 3
EASTERN LI SOUND 0400            31 51  310/ 14/ 19   N/A
ROBBINS REEF     0500            29     330/  6/  8 1024.1
$$


>>>>>>>>>>>>>>>>>>>>>>>>>>>> KEY <<<<<<<<<<<<<<<<<<<<<<<<<<<
>                                                          <
>     SKY/WX - SKY CONDITION/PRESENT WEATHER               <
>     TMP    - TEMPERATURE IN FAHRENHEIT                   <
>     DP     - DEWPOINT IN FAHRENHEIT                      <
>     RH     - RELATIVE HUMIDITY IN PERCENT                <
>     WIND   - DIRECTION AND SPEED IN MPH                  <
>     PRES   - MEAN SEA LEVEL PRESSURE IN INCHES OF HG     <
>     WCI    - WIND CHILL INDEX                            <
>     VSB    - VISIBILITY IN MILES                         <
>     HX     - HEAT INDEX                                  <
>     TC     - TEMPERATURE IN CELSIUS                      <
>     VRB    - VARIABLE WIND DIRECTION                     <
>                                                          <
>>>>>>>>>>>>>>>>>>>>>>>>>>>> KEY <<<<<<<<<<<<<<<<<<<<<<<<<<<





USA.gov is the U.S. government's official web portal to all federal, state and local government web resources and services.